Regional Weather Roundup
Issued by NWS

Home | Current Version | Previous Version | Graphics & Text | Print | Product List | Glossary On
Versions: 1 2 3 4 5 6 7 8 9 10 11 12 13 14 15 16 17 18 19 20 21 22 23 24 25 26 27 28 29 30 31 32 33 34 35 36 37 38 39 40 41 42 43 44 45 46 47 48 49 50
886
ASUS44 KLIX 300701
RWRLA
LOUISIANA WEATHER ROUNDUP
NATIONAL WEATHER SERVICE NEW ORLEANS LA
200 AM CDT SAT AUG 30 2014

NOTE: "FAIR" INDICATES FEW OR NO CLOUDS BELOW 12,000 FEET WITH NO
      SIGNIFICANT WEATHER AND/OR OBSTRUCTIONS TO VISIBILITY.
      SKY/WX - SKY CONDITION AND SIGNIFICANT WEATHER.
      TMP - AIR TEMPERATURE.    DP   - DEWPOINT TEMPERATURE.
      RH  - RELATIVE HUMIDITY.  PRES - PRESSURE.
      HX  - HEAT INDEX.         WCI  - WIND CHILL INDEX.

*  THESE STATIONS ARE NOT NWS OR FAA STATIONS AND ARE NOT UNDER
   NWS QUALITY CONTROL.

LAZ040-048-061>063-065-066-069-300800-
SOUTHEAST LOUISIANA

CITY           SKY/WX    TMP DP  RH WIND       PRES   REMARKS
N.O. AUDUBON     N/A     79  76  91 MISG        N/A
N.O. INTL ARPT CLOUDY    79  74  84 SE10      29.99F
N.O. LAKEFRONT MOCLDY    79  76  90 SE10      30.00F
N.O. DOWNTOWN* FAIR      79  72  78 SE3       30.00F
SLIDELL        PTCLDY    78  75  90 SE3       30.00F
BATON ROUGE    CLOUDY    75  74  96 E3        29.99F
BOOTHVILLE     PTCLDY    80  76  87 SE8       30.02F
BELLE CHASSE   MOCLDY    80  74  81 SE7       29.98F
BOGALUSA*        N/A     78  74  87 CALM      30.03F
GALLIANO*      NOT AVBL
NEW ROADS*     FAIR      75  73  94 SE5       29.99F
GONZALES*      DRIZZLE   76  76 100 CALM      29.98S
HAMMOND*       NOT AVBL
HOUMA*         CLOUDY    76  73  92 CALM      29.99S
PORT FOURCHON* MOSUNNY   82  77  83 SE16      30.00F

$$

LAZ041-044-053-054-300800-
SOUTHWEST LOUISIANA

CITY           SKY/WX    TMP DP  RH WIND       PRES   REMARKS
LAKE CHARLES   CLOUDY    77  74  90 E7        29.94S
LAFAYETTE      CLOUDY    75  75 100 SE5       29.97F
PATTERSON      CLOUDY    73  73 100 CALM      30.01S
SALT POINT       N/A     79  76  90 CALM      29.97S
NEW IBERIA     CLOUDY    76  74  93 SE6       29.97F
CHENAULT AIRPK CLOUDY    76  73  91 E5        29.95F

$$

LAZ027-028-300800-
CENTRAL LOUISIANA

CITY           SKY/WX    TMP DP  RH WIND       PRES   REMARKS
FORT POLK      CLOUDY    75  73  93 E7        29.96F
ALEXANDRIA INT CLOUDY    76  73  91 SE7       29.96F
ALEXANDRIA     LGT RAIN  76  73  91 CALM      29.99S

$$

LAZ001-002-300800-
NORTHWEST LOUISIANA

CITY           SKY/WX    TMP DP  RH WIND       PRES   REMARKS
SHREVEPORT     CLOUDY    77  72  84 SE7       29.95F
BARKSDALE AFB  CLOUDY    76  72  89 SE8       29.97S
DTN SHREVEPORT MOCLDY    76  73  91 SE5       29.96S

$$

LAZ014-016-300800-
NORTHEAST LOUISIANA

CITY           SKY/WX    TMP DP  RH WIND       PRES   REMARKS
MONROE         LGT RAIN  78  75  90 S3        30.00F
TALLULAH       CLOUDY    78  72  81 S3        30.00F

$$




USA.gov is the U.S. government's official web portal to all federal, state and local government web resources and services.